Regional Weather Roundup
Issued by NWS

Home | Current Version | Previous Version | Graphics & Text | Print | Product List | Glossary On
Versions: 1 2 3 4 5 6 7 8 9 10 11 12 13 14 15 16 17 18 19 20 21 22 23 24 25 26 27 28 29 30 31 32 33 34 35 36 37 38 39 40 41 42 43 44 45 46 47 48 49 50
972
ASUS43 KFSD 081810
RWRSD

WEATHER ROUNDUP FOR SOUTH DAKOTA
NATIONAL WEATHER SERVICE SIOUX FALLS SD
1200 PM CST THU DEC 08 2016

NOTE: "FAIR" INDICATES FEW OR NO CLOUDS BELOW 12,000 FEET WITH NO
SIGNIFICANT WEATHER AND/OR OBSTRUCTIONS TO VISIBILITY.


SDZ001>005-009-010-012>017-081900-
NORTHWEST AND NORTH CENTRAL SOUTH DAKOTA

CITY           SKY/WX    TMP DP  RH WIND       PRES   REMARKS
BUFFALO          N/A      3  -6  66 NW17      30.48F WCI -17
FAITH            N/A      0  -5  79 NW20      30.59F WCI -22
MOBRIDGE       SUNNY      4  -6  63 NW14      30.62F WCI -14
$$

SDZ012>016-024>037-041>051-057-063-072>074-081900-
SOUTHWEST AND SOUTH CENTRAL SOUTH DAKOTA

CITY           SKY/WX    TMP DP  RH WIND       PRES   REMARKS
RAPID CTY ARPT SUNNY      9  -3  58 CALM      30.56F
PIERRE         SUNNY      7   1  76 NW21      30.65F WCI -13
CUSTER         SUNNY     11  -9  40 W6        30.30F WCI   1
ELLSWORTH AFB  SUNNY      9  -4  55 VRB1      30.54F
PHILIP         SUNNY      9  -4  55 NW16      30.65F WCI  -8
PINE RIDGE     SUNNY      2  -3  80 SW3       30.56F
SPEARFISH      FAIR       7  -4  61 W8        30.49F WCI  -6
WINNER         FAIR      12  -1  56 NW17      30.64F WCI  -5
$$

SDZ004>011-016>023-039-040-081900-
NORTHEAST SOUTH DAKOTA

CITY           SKY/WX    TMP DP  RH WIND       PRES   REMARKS
ABERDEEN       CLOUDY    14   4  64 NW18      30.61S WCI  -3
WATERTOWN      CLOUDY    11   5  77 NW20G25   30.51S WCI  -7
BROOKINGS      FLURRIES  12   6  77 NW20      30.51S WCI  -6
SISSETON         N/A     14   7  73 NW26      30.53S WCI  -6
$$

SDZ017-020-022-023-036>040-048>070-081900-
SOUTHEAST SOUTH DAKOTA

CITY           SKY/WX    TMP DP  RH WIND       PRES   REMARKS
SIOUX FALLS    MOSUNNY   16   7  67 NW20G29   30.55F WCI  -1
HURON          CLOUDY    14   5  67 NW18      30.62F WCI  -3
CHAMBERLAIN    MOSUNNY   13   4  66 NW14      30.65S WCI  -2
MITCHELL       SUNNY     17   5  59 NW17      30.64F WCI   1
YANKTON        SUNNY     18   3  53 NW23G29   30.62F WCI   0
$$

ABBREVIATIONS USED IN REMARKS
   TC - TEMPERATURE IN CELSIUS
  WCI - WIND CHILL INDEX
   HX - HEAT INDEX
  VSB - VISIBILITY





USA.gov is the U.S. government's official web portal to all federal, state and local government web resources and services.